Satellite: NO-44
Catalog number: 26931
Epoch time:      10167.64439295
Element set:     484
Inclination:      067.0496 deg
RA of node:       205.3724 deg
Eccentricity:    0.0005607
Arg of perigee:   262.3574 deg
Mean anomaly:     097.6903 deg
Mean motion:   14.29599254 rev/day
Decay rate:      -2.09e-06 rev/day^2
Epoch rev:           45467
Checksum:              336

Satellite: SO-50
Catalog number: 27607
Epoch time:      10168.68806310
Element set:     201
Inclination:      064.5586 deg
RA of node:       354.9961 deg
Eccentricity:    0.0034828
Arg of perigee:   076.3888 deg
Mean anomaly:     284.1080 deg
Mean motion:   14.71548005 rev/day
Decay rate:        3.2e-07 rev/day^2
Epoch rev:           40245
Checksum:              303

Satellite: CO-55
Catalog number: 27844
Epoch time:      10167.60212511
Element set:    0869
Inclination:      098.7088 deg
RA of node:       176.5841 deg
Eccentricity:    0.0009878
Arg of perigee:   166.8074 deg
Mean anomaly:     193.3363 deg
Mean motion:   14.20712924 rev/day
Decay rate:        4.7e-07 rev/day^2
Epoch rev:           36100
Checksum:              319

Satellite: CO-57
Catalog number: 27848
Epoch time:      10168.54731237
Element set:     820
Inclination:      098.7131 deg
RA of node:       176.6098 deg
Eccentricity:    0.0009449
Arg of perigee:   169.0529 deg
Mean anomaly:     191.0854 deg
Mean motion:   14.20505114 rev/day
Decay rate:        5.1e-07 rev/day^2
Epoch rev:           36109
Checksum:              310

Satellite: AO-51
Catalog number: 28375
Epoch time:      10168.49620234
Element set:     702
Inclination:      098.0619 deg
RA of node:       161.9745 deg
Eccentricity:    0.0084850
Arg of perigee:   095.8260 deg
Mean anomaly:     265.2613 deg
Mean motion:   14.40688148 rev/day
Decay rate:        2.2e-07 rev/day^2
Epoch rev:           31355
Checksum:              308

Satellite: GENESAT1
Catalog number: 29655
Epoch time:      10168.70328519
Element set:     111
Inclination:      040.0195 deg
RA of node:       025.3926 deg
Eccentricity:    0.0010217
Arg of perigee:   319.2290 deg
Mean anomaly:     040.8531 deg
Mean motion:   15.94354272 rev/day
Decay rate:    1.47748e-03 rev/day^2
Epoch rev:           20007
Checksum:              274

Satellite: CP3
Catalog number: 31129
Epoch time:      10168.76678814
Element set:     604
Inclination:      097.9369 deg
RA of node:       208.3087 deg
Eccentricity:    0.0100765
Arg of perigee:   231.3266 deg
Mean anomaly:     127.8835 deg
Mean motion:   14.52267545 rev/day
Decay rate:       1.72e-06 rev/day^2
Epoch rev:           16794
Checksum:              326

Satellite: CO-65
Catalog number: 32785
Epoch time:      10168.63732688
Element set:     709
Inclination:      097.8956 deg
RA of node:       233.5582 deg
Eccentricity:    0.0013791
Arg of perigee:   285.1412 deg
Mean anomaly:     074.8263 deg
Mean motion:   14.81667474 rev/day
Decay rate:       3.17e-06 rev/day^2
Epoch rev:           11555
Checksum:              343

Satellite: KKS-1
Catalog number: 33493
Epoch time:      10168.86239283
Element set:     584
Inclination:      098.0865 deg
RA of node:       288.3599 deg
Eccentricity:    0.0020963
Arg of perigee:   136.0193 deg
Mean anomaly:     224.2692 deg
Mean motion:   14.81010496 rev/day
Decay rate:       3.30e-06 rev/day^2
Epoch rev:            7558
Checksum:              322

Satellite: SOHLA-1
Catalog number: 33496
Epoch time:      10167.88852577
Element set:    0131
Inclination:      098.0600 deg
RA of node:       276.9671 deg
Eccentricity:    0.0006241
Arg of perigee:   195.2438 deg
Mean anomaly:     164.8584 deg
Mean motion:   14.69498489 rev/day
Decay rate:       1.11e-06 rev/day^2
Epoch rev:           07483
Checksum:              335

/EX
SB KEPS @ AMSAT  $ORB10168.W
Orbital Elements  10168.WEATHER

HR AMSAT ORBITAL ELEMENTS FOR WEATHER SATELLITES
FROM WA5QGD FORT WORTH,TX June 17, 2010
Send Subscribe/unsubscribe to KEPS at http://www.amsat.org/mailman/listinfo/kep
BID: ORB10168.W
TO ALL RADIO AMATEURS BT

Satellite: NOAA-10
Catalog number: 16969
Epoch time:      10168.15298206
Element set:     101
Inclination:      098.6548 deg
RA of node:       197.1210 deg
Eccentricity:    0.0011731
Arg of perigee:   208.6168 deg
Mean anomaly:     151.4369 deg
Mean motion:   14.27419038 rev/day
Decay rate:       -2.7e-07 rev/day^2
Epoch rev:           23557
Checksum:              299

Satellite: NOAA-11
Catalog number: 19531
Epoch time:      10168.31103221
Element set:     114
Inclination:      098.7696 deg
RA of node:       257.3331 deg
Eccentricity:    0.0011792
Arg of perigee:   143.9157 deg
Mean anomaly:     216.2833 deg
Mean motion:   14.14927687 rev/day
Decay rate:        6.0e-08 rev/day^2
Epoch rev:           12115
Checksum:              277

Satellite: NOAA-12
Catalog number: 21263
Epoch time:      10168.42127201
Element set:     600
Inclination:      098.7638 deg
RA of node:       181.5818 deg
Eccentricity:    0.0012634
Arg of perigee:   161.5395 deg
Mean anomaly:     198.6257 deg
Mean motion:   14.25639385 rev/day
Decay rate:       1.84e-06 rev/day^2
Epoch rev:           99243
Checksum:              311

